カタログに戻る

STARLINK-36276

運用中通信VLEO
NORAD 67852·PAYLOAD·🇺🇸 United States

打ち上げ Feb 20, 2026 から Vandenberg Space Force Base

Loading…

次のパス (今後24時間)

TLE

最新Source: CelesTrak SupGP

元期: Sep 15, 2026, 03:23 UTC

1 67852C 26034C   26258.14145833  .00001756  00000+0  51887-4 0  2584
2 67852  53.1596  42.7650 0001212  87.9114 251.7956 15.34381648    18

AllMySatでSTARLINK-36276をリアルタイム追跡

Download on the App Store